TimeEST,TemperatureF,Dew PointF,Humidity,Sea Level PressureIn,VisibilityMPH,Wind Direction,Wind SpeedMPH,Gust SpeedMPH,PrecipitationIn,Events,Conditions,WindDirDegrees,DateUTC
12:15 AM,28.8,18.0,64,29.99,10.0,SSW,6.9,-,N/A,,Overcast,200,2014-01-19 05:15:00
12:35 AM,29.8,16.7,58,29.98,10.0,SSW,8.1,-,N/A,,Overcast,200,2014-01-19 05:35:00
12:55 AM,30.0,16.7,58,29.98,10.0,South,5.8,-,N/A,,Overcast,180,2014-01-19 05:55:00
1:15 AM,30.0,15.8,56,29.97,10.0,South,9.2,-,N/A,,Overcast,190,2014-01-19 06:15:00
1:35 AM,30.2,15.8,55,29.97,10.0,South,9.2,-,N/A,,Mostly Cloudy,190,2014-01-19 06:35:00
1:55 AM,30.2,16.0,56,29.96,10.0,SSW,9.2,-,N/A,,Scattered Clouds,200,2014-01-19 06:55:00
2:15 AM,30.9,16.3,55,29.96,10.0,SSW,8.1,-,N/A,,Mostly Cloudy,200,2014-01-19 07:15:00
2:35 AM,31.3,16.5,54,29.95,10.0,SSW,9.2,-,N/A,,Mostly Cloudy,210,2014-01-19 07:35:00
2:55 AM,31.6,16.3,53,29.94,10.0,SSW,9.2,-,N/A,,Mostly Cloudy,200,2014-01-19 07:55:00
3:15 AM,32.0,16.0,52,29.94,10.0,SSW,8.1,-,N/A,,Scattered Clouds,200,2014-01-19 08:15:00
3:35 AM,32.0,16.2,52,29.94,10.0,SSW,8.1,-,N/A,,Overcast,210,2014-01-19 08:35:00
3:55 AM,32.2,16.3,52,29.94,10.0,SSW,10.4,-,N/A,,Overcast,210,2014-01-19 08:55:00
4:15 AM,32.5,16.5,52,29.93,10.0,SSW,9.2,-,N/A,,Overcast,210,2014-01-19 09:15:00
4:35 AM,32.9,16.2,50,29.92,10.0,SSW,10.4,-,N/A,,Overcast,210,2014-01-19 09:35:00
4:55 AM,32.5,16.5,52,29.92,10.0,SSW,10.4,-,N/A,,Overcast,210,2014-01-19 09:55:00
5:15 AM,32.4,16.7,53,29.92,10.0,SW,8.1,-,N/A,,Mostly Cloudy,220,2014-01-19 10:15:00
5:35 AM,32.5,16.5,52,29.92,10.0,SSW,9.2,-,N/A,,Mostly Cloudy,210,2014-01-19 10:35:00
5:55 AM,32.5,16.5,52,29.91,10.0,SSW,9.2,-,N/A,,Mostly Cloudy,200,2014-01-19 10:55:00
6:15 AM,32.2,16.3,52,29.91,10.0,SSW,8.1,-,N/A,,Scattered Clouds,200,2014-01-19 11:15:00
6:35 AM,32.4,16.5,52,29.91,10.0,SW,5.8,-,0.01,,Scattered Clouds,220,2014-01-19 11:35:00
6:55 AM,32.0,16.7,53,29.92,10.0,SW,6.9,-,0.01,,Mostly Cloudy,220,2014-01-19 11:55:00
7:15 AM,31.3,17.8,57,29.92,10.0,SSW,6.9,-,N/A,,Scattered Clouds,210,2014-01-19 12:15:00
7:35 AM,30.6,18.0,60,29.92,10.0,SW,6.9,-,N/A,,Clear,220,2014-01-19 12:35:00
7:55 AM,30.4,18.3,61,29.92,10.0,SSW,6.9,-,N/A,,Clear,200,2014-01-19 12:55:00
8:15 AM,32.0,17.6,55,29.92,10.0,SSW,6.9,-,N/A,,Clear,210,2014-01-19 13:15:00
8:35 AM,32.0,18.0,56,29.93,10.0,SW,6.9,-,N/A,,Clear,220,2014-01-19 13:35:00
8:55 AM,34.0,18.1,52,29.94,10.0,SW,8.1,-,N/A,,Clear,220,2014-01-19 13:55:00
9:15 AM,34.9,18.3,51,29.94,10.0,SW,8.1,-,N/A,,Clear,220,2014-01-19 14:15:00
9:35 AM,37.4,17.4,44,29.94,10.0,SW,9.2,-,N/A,,Clear,230,2014-01-19 14:35:00
9:55 AM,38.5,17.2,42,29.94,10.0,SW,10.4,-,N/A,,Clear,220,2014-01-19 14:55:00
10:15 AM,40.1,16.5,39,29.94,10.0,SW,11.5,-,N/A,,Clear,220,2014-01-19 15:15:00
10:35 AM,41.5,15.1,34,29.94,10.0,SW,11.5,-,N/A,,Clear,230,2014-01-19 15:35:00
10:55 AM,42.3,15.8,34,29.94,10.0,SW,11.5,16.1,N/A,,Clear,230,2014-01-19 15:55:00
11:15 AM,44.1,15.6,32,29.94,10.0,SW,10.4,-,N/A,,Clear,220,2014-01-19 16:15:00
11:35 AM,45.7,16.5,31,29.94,10.0,WSW,11.5,16.1,N/A,,Clear,240,2014-01-19 16:35:00
11:55 AM,46.9,17.1,30,29.92,10.0,SW,9.2,-,N/A,,Clear,230,2014-01-19 16:55:00
12:15 PM,48.4,18.0,30,29.91,10.0,WSW,9.2,-,N/A,,Clear,250,2014-01-19 17:15:00
12:35 PM,49.8,19.2,30,29.90,10.0,WSW,8.1,-,N/A,,Clear,250,2014-01-19 17:35:00
12:55 PM,49.8,20.3,31,29.89,10.0,WSW,12.7,16.1,N/A,,Clear,240,2014-01-19 17:55:00
1:15 PM,50.7,21.4,32,29.88,10.0,SW,11.5,19.6,N/A,,Clear,230,2014-01-19 18:15:00
1:35 PM,51.3,21.4,31,29.87,10.0,WSW,9.2,18.4,N/A,,Clear,250,2014-01-19 18:35:00
1:55 PM,51.8,21.6,31,29.87,10.0,WSW,10.4,17.3,0.01,,Clear,250,2014-01-19 18:55:00
2:15 PM,51.4,21.0,30,29.87,10.0,WSW,11.5,20.7,N/A,,Clear,250,2014-01-19 19:15:00
2:35 PM,50.2,21.2,32,29.87,10.0,West,11.5,21.9,N/A,,Clear,270,2014-01-19 19:35:00
2:55 PM,49.6,22.1,34,29.88,10.0,West,6.9,19.6,N/A,,Scattered Clouds,260,2014-01-19 19:55:00
3:15 PM,49.3,22.1,34,29.89,10.0,WSW,13.8,20.7,N/A,,Scattered Clouds,250,2014-01-19 20:15:00
3:35 PM,50.9,21.7,32,29.89,10.0,WSW,15.0,19.6,N/A,,Scattered Clouds,250,2014-01-19 20:35:00
3:55 PM,49.1,21.4,34,29.89,10.0,West,8.1,19.6,N/A,,Clear,260,2014-01-19 20:55:00
4:15 PM,49.6,21.9,34,29.90,10.0,West,8.1,-,N/A,,Clear,270,2014-01-19 21:15:00
4:35 PM,49.1,21.9,34,29.90,10.0,WSW,12.7,18.4,N/A,,Clear,250,2014-01-19 21:35:00
4:55 PM,48.2,22.1,36,29.90,10.0,West,8.1,-,N/A,,Clear,260,2014-01-19 21:55:00
5:15 PM,46.8,22.6,39,29.91,10.0,WSW,3.5,-,N/A,,Clear,240,2014-01-19 22:15:00
5:35 PM,45.5,23.0,41,29.91,10.0,Calm,Calm,-,N/A,,Clear,0,2014-01-19 22:35:00
5:55 PM,44.6,23.0,43,29.91,10.0,WSW,3.5,-,N/A,,Clear,240,2014-01-19 22:55:00
6:15 PM,43.0,24.4,48,29.92,10.0,Calm,Calm,-,N/A,,Clear,0,2014-01-19 23:15:00
6:35 PM,41.4,24.6,51,29.92,10.0,SW,3.5,-,N/A,,Clear,220,2014-01-19 23:35:00
6:55 PM,41.9,24.3,50,29.92,10.0,Calm,Calm,-,N/A,,Clear,0,2014-01-19 23:55:00
7:15 PM,40.1,24.6,54,29.92,10.0,Calm,Calm,-,N/A,,Clear,0,2014-01-20 00:15:00
7:55 PM,37.9,25.0,60,29.92,10.0,SW,4.6,-,N/A,,Clear,220,2014-01-20 00:55:00
8:15 PM,36.5,25.5,64,29.92,10.0,SSW,5.8,-,N/A,,Clear,210,2014-01-20 01:15:00
8:35 PM,36.7,25.3,64,29.92,10.0,WSW,3.5,-,N/A,,Clear,240,2014-01-20 01:35:00
8:55 PM,39.7,23.9,53,29.92,10.0,SW,4.6,-,N/A,,Clear,230,2014-01-20 01:55:00
9:15 PM,36.7,25.0,63,29.92,10.0,SW,3.5,-,N/A,,Clear,220,2014-01-20 02:15:00
9:35 PM,34.9,25.5,69,29.92,10.0,SW,4.6,-,N/A,,Clear,230,2014-01-20 02:35:00
9:55 PM,34.9,24.6,66,29.92,10.0,SW,5.8,-,N/A,,Clear,230,2014-01-20 02:55:00
10:15 PM,36.7,23.4,59,29.92,10.0,SW,5.8,-,N/A,,Clear,230,2014-01-20 03:15:00
10:35 PM,37.2,23.0,56,29.91,10.0,SW,6.9,-,N/A,,Clear,230,2014-01-20 03:35:00
10:55 PM,37.2,23.0,56,29.92,10.0,SW,9.2,-,N/A,,Clear,220,2014-01-20 03:55:00
11:15 PM,35.2,23.5,62,29.92,10.0,SW,8.1,-,N/A,,Clear,220,2014-01-20 04:15:00
11:35 PM,34.7,23.4,63,29.91,10.0,SSW,5.8,-,N/A,,Clear,210,2014-01-20 04:35:00
11:55 PM,34.2,23.5,65,29.90,10.0,SSW,5.8,-,N/A,,Clear,210,2014-01-20 04:55:00